Time,TemperatureF,DewpointF,PressureIn,WindDirection,WindDirectionDegrees,WindSpeedMPH,WindSpeedGustMPH,Humidity,HourlyPrecipIn,Conditions,Clouds,dailyrainin,SoftwareType,DateUTC
2013-01-06 16:12:00,44.0,24.0,-100.00,NE,40,11.0,19.0,45,-99.99,,,-99.99,,2013-01-06 21:12:00,
2013-01-06 16:22:00,44.0,24.0,-100.00,NE,40,11.0,19.0,45,-99.99,,,-99.99,,2013-01-06 21:22:00,
2013-01-06 16:33:00,44.0,24.0,-100.00,NE,55,5.0,12.0,46,-99.99,,,-99.99,,2013-01-06 21:33:00,
2013-01-06 16:43:00,44.0,24.0,-100.00,NE,45,6.0,11.0,46,-99.99,,,-99.99,,2013-01-06 21:43:00,
2013-01-06 16:52:00,44.0,24.0,-100.00,NE,45,6.0,11.0,46,-99.99,,,-99.99,,2013-01-06 21:52:00,
2013-01-06 17:02:00,43.0,23.0,-100.00,NE,45,9.0,12.0,46,-99.99,,,-99.99,,2013-01-06 22:02:00,
2013-01-06 17:12:00,42.0,24.0,-100.00,NE,45,5.0,9.0,48,-99.99,,,-99.99,,2013-01-06 22:12:00,
2013-01-06 17:22:00,42.0,24.0,-100.00,NE,45,5.0,9.0,48,-99.99,,,-99.99,,2013-01-06 22:22:00,
2013-01-06 17:33:00,42.0,24.0,-100.00,NE,35,4.0,6.0,48,-99.99,,,-99.99,,2013-01-06 22:33:00,
2013-01-06 17:43:00,42.0,24.0,-100.00,NE,45,6.0,10.0,49,-99.99,,,-99.99,,2013-01-06 22:43:00,
2013-01-06 17:53:00,42.0,24.0,-100.00,NE,45,6.0,10.0,49,-99.99,,,-99.99,,2013-01-06 22:53:00,
2013-01-06 18:02:00,41.0,24.0,-100.00,NE,45,4.0,7.0,50,-99.99,,,-99.99,,2013-01-06 23:02:00,
2013-01-06 18:13:00,41.0,24.0,-100.00,NE,45,4.0,7.0,51,-99.99,,,-99.99,,2013-01-06 23:13:00,
2013-01-06 18:22:00,41.0,24.0,-100.00,NE,45,4.0,7.0,51,-99.99,,,-99.99,,2013-01-06 23:22:00,
2013-01-06 18:33:00,41.0,24.0,-100.00,NE,45,3.0,5.0,51,-99.99,,,-99.99,,2013-01-06 23:33:00,
2013-01-06 18:43:00,41.0,24.0,-100.00,NE,45,4.0,7.0,52,-99.99,,,-99.99,,2013-01-06 23:43:00,
2013-01-06 18:53:00,41.0,24.0,-100.00,NE,45,4.0,7.0,52,-99.99,,,-99.99,,2013-01-06 23:53:00,
2013-01-06 19:03:00,41.0,25.0,-100.00,NE,45,5.0,8.0,52,-99.99,,,-99.99,,2013-01-07 00:03:00,
2013-01-06 19:12:00,41.0,25.0,-100.00,NE,55,6.0,10.0,52,-99.99,,,-99.99,,2013-01-07 00:12:00,
2013-01-06 19:23:00,41.0,25.0,-100.00,NE,55,6.0,10.0,52,-99.99,,,-99.99,,2013-01-07 00:23:00,
2013-01-06 19:33:00,41.0,25.0,-100.00,NE,45,5.0,7.0,53,-99.99,,,-99.99,,2013-01-07 00:33:00,
2013-01-06 19:43:00,41.0,25.0,-100.00,NE,55,3.0,7.0,53,-99.99,,,-99.99,,2013-01-07 00:43:00,
2013-01-06 19:53:00,41.0,25.0,-100.00,NE,55,3.0,7.0,53,-99.99,,,-99.99,,2013-01-07 00:53:00,
2013-01-06 20:03:00,41.0,25.0,-100.00,NE,40,4.0,6.0,54,-99.99,,,-99.99,,2013-01-07 01:03:00,
2013-01-06 20:12:00,40.0,25.0,-100.00,NE,40,3.0,6.0,54,-99.99,,,-99.99,,2013-01-07 01:12:00,
2013-01-06 20:23:00,40.0,25.0,-100.00,NE,40,3.0,6.0,54,-99.99,,,-99.99,,2013-01-07 01:23:00,
2013-01-06 20:32:00,40.0,25.0,-100.00,NE,35,3.0,6.0,55,-99.99,,,-99.99,,2013-01-07 01:32:00,
2013-01-06 20:43:00,40.0,26.0,-100.00,NNE,20,3.0,5.0,55,-99.99,,,-99.99,,2013-01-07 01:43:00,
2013-01-06 20:52:00,40.0,26.0,-100.00,NNE,20,3.0,5.0,55,-99.99,,,-99.99,,2013-01-07 01:52:00,
2013-01-06 21:02:00,41.0,26.0,-100.00,NE,55,3.0,5.0,55,-99.99,,,-99.99,,2013-01-07 02:02:00,
2013-01-06 21:12:00,40.0,26.0,-100.00,NE,45,4.0,6.0,56,-99.99,,,-99.99,,2013-01-07 02:12:00,
2013-01-06 21:23:00,40.0,26.0,-100.00,NE,45,4.0,6.0,56,-99.99,,,-99.99,,2013-01-07 02:23:00,
2013-01-06 21:32:00,41.0,26.0,-100.00,NE,45,4.0,8.0,56,-99.99,,,-99.99,,2013-01-07 02:32:00,
2013-01-06 21:42:00,40.0,26.0,-100.00,NE,40,4.0,6.0,56,-99.99,,,-99.99,,2013-01-07 02:42:00,
2013-01-06 21:53:00,40.0,26.0,-100.00,NE,40,4.0,6.0,56,-99.99,,,-99.99,,2013-01-07 02:53:00,
2013-01-06 22:02:00,40.0,26.0,-100.00,NNE,30,4.0,6.0,58,-99.99,,,-99.99,,2013-01-07 03:02:00,
2013-01-06 22:12:00,40.0,26.0,-100.00,NNE,30,5.0,7.0,58,-99.99,,,-99.99,,2013-01-07 03:12:00,
2013-01-06 22:23:00,40.0,26.0,-100.00,NNE,30,5.0,7.0,58,-99.99,,,-99.99,,2013-01-07 03:23:00,
2013-01-06 22:33:00,40.0,26.0,-100.00,NE,40,3.0,6.0,58,-99.99,,,-99.99,,2013-01-07 03:33:00,
2013-01-06 22:43:00,40.0,26.0,-100.00,NE,35,3.0,5.0,58,-99.99,,,-99.99,,2013-01-07 03:43:00,
2013-01-06 22:52:00,40.0,26.0,-100.00,NE,35,3.0,5.0,58,-99.99,,,-99.99,,2013-01-07 03:52:00,
2013-01-06 23:02:00,39.0,26.0,-100.00,NE,45,3.0,6.0,59,-99.99,,,-99.99,,2013-01-07 04:02:00,
2013-01-06 23:13:00,37.0,26.0,-100.00,NNE,30,3.0,5.0,62,-99.99,,,-99.99,,2013-01-07 04:13:00,
2013-01-06 23:22:00,37.0,26.0,-100.00,NNE,30,3.0,5.0,62,-99.99,,,-99.99,,2013-01-07 04:22:00,
2013-01-06 23:33:00,38.0,26.0,-100.00,NE,35,5.0,9.0,62,-99.99,,,-99.99,,2013-01-07 04:33:00,
2013-01-06 23:42:00,39.0,27.0,-100.00,NE,45,6.0,9.0,61,-99.99,,,-99.99,,2013-01-07 04:42:00,
2013-01-06 23:53:00,39.0,27.0,-100.00,NE,45,6.0,9.0,61,-99.99,,,-99.99,,2013-01-07 04:53:00,